Cakrawarta 1

operational
NORAD ID: 25050 Int'l Des: 1997-071 Owner: INDO Country: ID
HEOCIRCULAR

About Cakrawarta 1

Description loading...

Live Position

Loading 3D Globe...

Upcoming Passes

Altitude History

Altitude vs Time

uPlot chart will show altitude changes over time

Two-Line Element Set

1 25050U 97071B 26016.16400155 .00000140 00000-0 00000-0 0 9998
2 25050 12.7820 21.1627 0005135 279.9256 266.9456 1.00244596103279
Epoch: Jan 16, 2026 • Age: 111 hours

Current Status

Altitude 35806.7 km
Velocity 3.07 km/s
Sub-Earth Point 9.91°N, 32.28°E
Launch Date Nov 12, 1997
Age 28.1 years
Type other

Technical Details

Classification Payload
Mass 718.00 kg
Dry Mass 643.00 kg
Total Mass 1385.00 kg
Length 3.80 m
Diameter 2.00 m
Span 16.10 m
Shape Box + 2 Pan
Manufacturer OSCM
Bus Type OSC Star 1
Phase Status In Orbit
Owner/State INDO/ID

Large Constellations

Loading constellations...